Location: ???? ?????
(37.9132°N, 22.9869°E)
Time: 09:46:52
(UTC+00:00)

Cosmos 1656 - Pass Details

Date: 04 August 2024
Orbit: 796 x 850 km, 71.1° (Epoch: 14 September)

Event Time Altitude Azimuth Distance (km) Brightness Sun altitude
Exits shadow 20:50:07 64° 7° (N) 905 3.9 -30.0°
Drops below altitude 10° 20:54:49 10° 21° (NNE) 2,433 6.5 -30.4°
Sets 20:57:17 0° 22° (NNE) 3,378 7.4 -30.6°
